COSMOS 2251 DEB, 36550

Orbit data source: Space-Track

COSMOS 2251 DEB, 36550 is space debris in LEO originally from a launch on Wed, 16 Jun 1993 UTC launched from the Plesetsk Missile And Space Complex (PKMTR). The debris from Iridium 33, an American commercial communications satellite, has been tracked extensively since its accidental collision with the defunct Russian satellite Cosmos 2251 in 2009. This event, occurring at high speed in low Earth orbit (LEO), generated thousands of pieces of space debris, significantly increasing the risk of further collisions. The Iridium 33 debris cloud has impacted space traffic management and orbital debris mitigation strategies, making it a subject of ongoing study in space situational awareness.

Loading next visibility...
Identifier
36550, 1993-036BDL
Orbit
LEO
Country
Flag of CISCIS
Related business
Manufacturer
Unknown
Mission
Spacecraft
Bus & Motor
Unknown
Mass
Unknown
Launch date (UTC)
1993-06-16 (33 years ago)
Launch vehicle
Unknown
Launch site
Plesetsk Missile And Space Complex (PKMTR)
Object type
Payload
Rocket body
Debris
Shape & HBR
Unknown shape, 0.1 m
Radar Cross Section
Small (<0.1 m²)

Expand to show TLE details & history
Last TLE update: 5 days ago

TLE from 5 days ago
0 COSMOS 2251 DEB
1 36550U 93036BDL 26029.57969898  .00002150  00000-0  85971-3 0  9991
2 36550  74.0443 106.1850 0075886 145.9680 214.6369 14.27426558852786
Epoch: 2026-01-29T13:54Z
TLE epoch observation values (Epoch: 2026-01-29T13:54:45.991Z)
Latitude
-0.00011°
Longitude
128.66298°
Altitude
847.907 km
Speed
7.406 km/s
True Right ascension
07h 04m 44s
True Declination
0° 00' 00"
Sunlit
Object was in full shadow at epoch
Visualization orbit readout
Latitude
Unknown
Longitude
Unknown
Altitude
Unknown
Speed
Unknown
Apparent Right ascension
Unknown
Apparent Declination
Unknown
Sunlit
N/A
Visualization observer readout
Local Sidereal Time
01:45:34
Azimuth
Unknown
Elevation
Unknown
Doppler factor
Unknown
Orbital elements
Apogee altitude
852.435 km
Perigee altitude
743.522 km
Semi-major axis
7,176.115 km
Eccentricity
0.00759
Inclination
74.0443°
RAAN
106.185°
Arg. of periapsis
145.968°
True anomaly
214.14648°
Mean anomaly
214.6369°
Eccentric anomaly
214.39131°
Mean motion
3.57034 °/min
Orbital period
100.83 mins
BSTAR
0.00085971
Loading maneuver chart data...
Computing Atmospheric mass density...

Documentation

Showing up to 5 results
|